Home   Weather   Aleppo   Past weeks

Flag for Syria Past Weather in Aleppo, Syria — Yesterday and Last 2 Weeks

Now
81 °F

Sunny.


Feels Like: 80 °F
Forecast: 60 / 87 °F
Wind: 3 mph from North

Location: Iskenderun

Current Time: Sep 25, 2016 at 3:25:36 PM

Latest Report: Sep 25, 2016 at 2:00 PM


Visibility: 13 mi

Pressure: 29.84 "Hg

Humidity: 35%

Dew Point: 50 °F

Location of AleppoLocation

Past Weather in Aleppo — Graph

°F

Aleppo Temperature Yesterday

Maximum temperature yesterday: 80 °F (at 5:00 PM)
Minimum temperature yesterday: 71 °F (at 6:00 AM)
Average temperature yesterday: 76 °F

High & Low Weather Summary for the Past Weeks

 TemperatureHumidityPressure
High90 °F (Sep 17, 4:00 PM)96% (Sep 23, 3:00 AM)30.06 "Hg (Sep 23, 3:00 AM)
Low67 °F (Sep 25, 6:00 AM)20% (Sep 17, 4:00 PM)29.78 "Hg (Sep 15, 4:00 PM)
Average82 °F59%29.86 "Hg
* Reported Sep 10 2:00 PM — Sep 25 2:00 PM, Aleppo, Weather by CustomWeather, © 2016

Note: Actual official high and low records may vary slightly from our data, if they occured in-between our weather recording intervals... More about our weather records

Advertising

Aleppo Weather History for the Previous 24 Hours

Scroll right to see more
 ConditionsComfort  
Time TempWeatherWind HumidityBarometerVisibility
2:00 PM
Sun, Sep 25
81 °FSunny.3 mph35%29.84 "Hg12 mi
1:00 PM78 °FSunny.7 mph42%29.87 "Hg12 mi
12:00 PM77 °FSunny.6 mph42%29.88 "Hg12 mi
11:00 AM75 °FSunny.5 mph46%29.90 "Hg12 mi
10:00 AM75 °FSunny.2 mph44%29.92 "Hg12 mi
9:00 AM74 °FSunny.No wind42%29.92 "Hg12 mi
6:00 AM67 °FClear.3 mph54%29.91 "Hg12 mi
3:00 AM68 °FClear.2 mph51%29.92 "Hg12 mi
12:00 AM70 °FClear.2 mph43%29.94 "Hg12 mi
9:00 PM
Sat, Sep 24
73 °FClear.2 mph38%29.97 "Hg12 mi
8:00 PM75 °FClear.1 mph36%29.97 "Hg12 mi
7:00 PM76 °FPassing clouds.No wind31%29.95 "Hg12 mi
6:00 PM79 °FSunny.2 mph31%29.94 "Hg12 mi
5:00 PM80 °FSunny.1 mph22%29.95 "Hg12 mi
4:00 PM79 °FSunny.2 mph26%29.96 "Hg12 mi
3:00 PM79 °FSunny.2 mph24%29.98 "Hg12 mi
Weather by CustomWeather, © 2016

See weather overviewHow to use our weather pages